Location: Kavul?ru
(16.6288°N, 80.5832°E)
Time: 15:17:36
(UTC+00:00)

OAO 3 Copernicus - Pass Details

Date: 15 May 2026
Orbit: 688 x 698 km, 35.0° (Epoch: 10 June)

Event Time Altitude Azimuth Distance (km) Brightness Sun altitude
Exits shadow 22:49:49 32° 229° (SW) 1,155 4.9 -17.7°
Maximum altitude 22:52:06 80° 146° (SSE) 696 4.2 -17.2°
Drops below altitude 10° 22:57:05 10° 60° (ENE) 2,127 8.2 -16.2°
Sets 22:59:29 0° 59° (ENE) 3,045 9.5 -15.7°
